HMU-SAT2

Last updated on Mon Sep 21 2026 00:02:05 GMT+0000 (Coordinated Universal Time)

1 67688U 98067YE 26262.48212092 .00135849 00000+0 73260-3 0 9991 2 67688 51.6246 171.4040 0007936 160.9140 199.2160 15.79194602 35037
UTC large
Height (km)
Speed (km/s)
/
Latitude / Longitude
Inclination (degrees)
Orbital Period (minutes)
Azimuth
Elevation
Range (km)
Doppler Factor

Next 0 passes for location: London (51.5072 / 0.1276)

No passes found over London.
HMU-SAT2